Regional Weather Roundup
Issued by NWS

Home | Current Version | Previous Version | Graphics & Text | Print | Product List | Glossary On
Versions: 1 2 3 4 5 6 7 8 9 10 11 12 13 14 15 16 17 18 19 20 21 22 23 24 25 26 27 28 29 30 31 32 33 34 35 36 37 38 39 40 41 42 43 44 45 46 47 48 49 50
000
ASUS43 KDTX 262310
RWRMI
MICHIGAN HOURLY REGIONAL WEATHER ROUNDUP
NATIONAL WEATHER SERVICE DETROIT/PONTIAC MI
ISSUED BY NATIONAL WEATHER SERVICE GRAND RAPIDS MI
700 PM EDT MON JUN 26 2017

NOTE: "FAIR" INDICATES FEW OR NO CLOUDS BELOW 12,000 FEET WITH NO
SIGNIFICANT WEATHER AND/OR OBSTRUCTION TO VISIBILITY.

MIZ047>049-052>055-059>063-066>070-074>076-081>083-270000-
SOUTHEAST LOWER MICHIGAN

CITY           SKY/WX    TMP DP  RH WIND       PRES   REMARKS
ADRIAN         PTSUNNY   69  41  36 NW13      29.99S
ALMA           CLOUDY    61  44  53 W16       29.97R
ANN ARBOR      SUNNY     68  42  38 W20G25    29.97F
BAD AXE        LGT RAIN  62  51  67 W8        29.92F
DETROIT CITY   LGT RAIN  65  45  48 SW12G21   29.96S
DETROIT        PTSUNNY   69  43  38 W12G18    29.97F
FLINT          SUNNY     67  41  38 W13G21    29.95F
GROSSE ILE     PTSUNNY   69  42  37 NW15      29.96S
HILLSDALE      MOSUNNY   64  39  39 W17G24    29.98F
HOWELL         MOSUNNY   65  37  35 W10       29.97S

CITY           SKY/WX    TMP DP  RH WIND       PRES   REMARKS
JACKSON        SUNNY     66  41  40 W12G26    29.98F
LANSING        PTSUNNY   66  40  38 W16G26    29.98S
MASON          CLOUDY    65  43  44 W16       29.98S
MONROE         MOSUNNY   69  46  43 W9G16     29.96S
MT. CLEMENS    PTSUNNY   69  41  35 W13G28    29.93S
PONTIAC        MOSUNNY   66  40  38 W16       29.95S
PORT HOPE        N/A     66  47  50 W12       29.90S
PORT HURON     PTSUNNY   68  41  37 W6        29.94S
TRI CITIES     MOSUNNY   64  47  53 W14       29.95S
YPSILANTI      SUNNY     69  44  40 NW12      29.97F
$$
MIZ043>046-050>051-056>058-064>065-071>073-077>080-270000-
SOUTHWEST LOWER MICHIGAN

CITY           SKY/WX    TMP DP  RH WIND       PRES   REMARKS
BATTLE CREEK   MOSUNNY   65  45  48 NW18G24   30.00S
BENTON HARBOR  CLOUDY    64  47  53 VRB6      30.03R
BIG RAPIDS     CLOUDY    57  43  59 NW6G18    29.97S
COLDWATER      MOSUNNY   68  39  34 W14G22    29.99S
HOLLAND        CLOUDY    61  47  59 NW10      30.02F
GRAND RAPIDS   CLOUDY    61  46  57 W13G23    30.00F
KALAMAZOO      PTSUNNY   65  43  44 NW17      30.01S
MARSHALL       PTSUNNY   68  42  38 W15G23    29.98S
MOUNT PLEASANT CLOUDY    61  45  54 W6        29.96S
MUSKEGON       PTSUNNY   60  46  59 NW12      30.01S
STURGIS        MOSUNNY   67  42  41 NW12G22   29.99S
$$
MIZ016>042-270000-
NORTHERN LOWER MICHIGAN

CITY           SKY/WX    TMP DP  RH WIND       PRES   REMARKS
ALPENA         HVY RAIN  55  54  96 W7        29.92S FOG
BEAVER ISLAND  RAIN      55  52  90 NW8       29.97S
BELLAIRE       HVY RAIN  55  52  91 W6        29.95F
CADILLAC       CLOUDY    56  44  63 W12       29.96S
CHARLEVOIX     LGT RAIN  55  53  92 N10G18    29.98S
GAYLORD        CLOUDY    55  50  83 W10       29.93F
HOUGHTON LAKE  CLOUDY    59  44  57 W12       29.95F
MANISTEE       CLOUDY    57  49  74 W10       29.99S
OSCODA         PTSUNNY   66  43  42 W13G24    29.90S
PELLSTON       LGT RAIN  55  51  86 NW12      29.95R
TRAVERSE CITY  LGT RAIN  58  49  72 W13       29.95S
LUDINGTON      CLOUDY    57  49  75 W7        29.99S
$$
MIZ007>008-015-270000-
EASTERN UPPER MICHIGAN

CITY           SKY/WX    TMP DP  RH WIND       PRES   REMARKS
KINROSS        LGT RAIN  52  47  83 NW12      29.94R
MACKINAC ISLAN LGT RAIN  54  54 100 NW7       29.94S
NEWBERRY       CLOUDY    52  49  90 NW5       29.96S
S. S. MARIE    LGT RAIN  53  47  79 NW8       29.93R
$$
MIZ004>006-011>014-085-270000-
CENTRAL UPPER MICHIGAN

CITY           SKY/WX    TMP DP  RH WIND       PRES   REMARKS
MANISTIQUE     CLOUDY    56  45  67 NW7       29.97S
ESCANABA       SUNNY     63  42  46 NW9       29.99R
MENOMINEE      CLOUDY    60  48  64 N8        30.02S
SAWYER-GWINN   SUNNY     61  43  51 NW7       30.00S
$$
MIZ001>003-009>011-084-270000-
WESTERN UPPER MICHIGAN

CITY           SKY/WX    TMP DP  RH WIND       PRES   REMARKS
IRON MOUNTAIN  MOSUNNY   62  45  53 NW5       30.01S
HOUGHTON       SUNNY     60  45  57 NW18      30.01S
COPPER HARBOR    N/A     61  48  62 N13G23    29.98F
IRONWOOD       MOSUNNY   64  46  52 NW10      30.04F
$$

ABBREVIATIONS USED IN REMARKS
   TC - TEMPERATURE IN CELSIUS
  WCI - WIND CHILL INDEX
   HX - HEAT INDEX
  VSB - VISIBILITY





USA.gov is the U.S. government's official web portal to all federal, state and local government web resources and services.